Location: Mason
(37.5237°N, 89.2543°W)
Time: 08:21:20
(UTC+00:00)

Meteor 2-13 Rocket - Pass Details

Date: 24 January 2021
Orbit: 935 x 958 km, 82.5° (Epoch: 08 March)

Event Time Altitude Azimuth Distance (km) Brightness Sun altitude
Rises 23:43:47 0° 180° (S) 3,598 7.7 -6.6°
Reaches altitude 10° 23:46:15 10° 178° (S) 2,660 7.0 -7.0°
Maximum altitude 23:52:19 74° 94° (E) 991 4.4 -8.2°
Drops below altitude 10° 23:58:27 10° 11° (N) 2,691 6.5 -9.3°
Sets 00:00:58 0° 10° (N) 3,642 7.2 -9.8°
